Location: Copenhagen
(55.6670°N, 12.5830°E)
Time: 04:28:35
(UTC+02:00)

ACS3 Solar Sail - Pass Details

Date: 26 September 2024
Orbit: 959 x 1034 km, 97.5° (Epoch: 14 October)

Event Time Altitude Azimuth Distance (km) Brightness Sun altitude
Rises 19:06:02 0° 115° (ESE) 3,785 4.3 -2.1°
Reaches altitude 10° 19:08:59 10° 103° (ESE) 2,837 3.6 -2.5°
Drops below altitude 10° 19:18:59 10° 0° (N) 2,837 4.3 -3.9°
Enters shadow 20:26:45 -49° 160° (SSE) 10,887 7.0 -13.3°
Maximum altitude 20:57:07 84° 73° (ENE) 1,047 1.9 -17.3°
